TimeCST,TemperatureF,Dew PointF,Humidity,Sea Level PressureIn,VisibilityMPH,Wind Direction,Wind SpeedMPH,Gust SpeedMPH,PrecipitationIn,Events,Conditions,WindDirDegrees,DateUTC
12:53 AM,37.9,36.0,93,29.96,10.0,Calm,Calm,-,N/A,,Clear,0,2013-02-27 06:53:00
1:53 AM,37.0,35.1,93,29.96,10.0,Calm,Calm,-,N/A,,Clear,0,2013-02-27 07:53:00
2:53 AM,37.9,36.0,93,29.96,10.0,Calm,Calm,-,N/A,,Clear,0,2013-02-27 08:53:00
3:21 AM,37.4,35.6,93,29.93,1.8,Calm,Calm,-,N/A,,Clear,0,2013-02-27 09:21:00
3:29 AM,35.6,35.6,100,29.93,3.0,Calm,Calm,-,N/A,,Clear,0,2013-02-27 09:29:00
3:53 AM,37.0,36.0,96,29.96,2.0,Calm,Calm,-,N/A,,Clear,0,2013-02-27 09:53:00
4:09 AM,35.6,35.6,100,29.93,1.5,Calm,Calm,-,N/A,,Clear,0,2013-02-27 10:09:00
4:33 AM,35.6,33.8,93,29.94,8.0,South,3.5,-,N/A,,Clear,170,2013-02-27 10:33:00
4:53 AM,37.0,35.1,93,29.96,10.0,Calm,Calm,-,N/A,,Clear,0,2013-02-27 10:53:00
5:53 AM,35.1,34.0,96,29.98,8.0,Calm,Calm,-,N/A,,Clear,0,2013-02-27 11:53:00
5:58 AM,37.4,35.6,93,29.96,1.8,Calm,Calm,-,N/A,,Clear,0,2013-02-27 11:58:00
6:27 AM,35.6,33.8,93,29.95,0.2,Calm,Calm,-,N/A,Fog,Fog,0,2013-02-27 12:27:00
6:53 AM,35.1,34.0,96,29.99,0.2,Calm,Calm,-,N/A,Fog,Fog,0,2013-02-27 12:53:00
7:07 AM,35.6,33.8,93,29.97,0.2,Calm,Calm,-,N/A,Fog,Fog,0,2013-02-27 13:07:00
7:33 AM,39.2,39.2,100,29.98,1.2,Calm,Calm,-,N/A,,Partly Cloudy,0,2013-02-27 13:33:00
7:43 AM,41.0,39.2,93,29.98,4.0,Calm,Calm,-,N/A,,Clear,0,2013-02-27 13:43:00
7:53 AM,41.0,41.0,100,30.01,8.0,Calm,Calm,-,N/A,,Clear,0,2013-02-27 13:53:00
9:53 AM,51.1,37.9,61,30.05,10.0,Calm,Calm,-,N/A,,Clear,0,2013-02-27 15:53:00
10:53 AM,52.0,37.9,59,30.08,10.0,NNW,6.9,-,N/A,,Clear,330,2013-02-27 16:53:00
11:53 AM,54.0,37.0,53,30.05,10.0,NNW,4.6,-,N/A,,Clear,330,2013-02-27 17:53:00
12:53 PM,57.0,37.9,49,30.03,10.0,Calm,Calm,-,N/A,,Clear,0,2013-02-27 18:53:00
1:53 PM,59.0,37.9,46,30.00,10.0,NW,9.2,17.3,N/A,,Clear,310,2013-02-27 19:53:00
2:53 PM,60.1,37.9,44,30.00,10.0,Variable,6.9,-,N/A,,Mostly Cloudy,0,2013-02-27 20:53:00
3:53 PM,61.0,37.9,42,30.00,10.0,West,10.4,18.4,N/A,,Overcast,270,2013-02-27 21:53:00
4:53 PM,60.1,37.0,42,30.00,10.0,WNW,11.5,-,N/A,,Partly Cloudy,300,2013-02-27 22:53:00
5:53 PM,57.9,36.0,44,30.01,10.0,WNW,11.5,17.3,N/A,,Clear,300,2013-02-27 23:53:00
6:53 PM,55.9,36.0,47,30.02,10.0,WNW,9.2,-,N/A,,Clear,300,2013-02-28 00:53:00
8:53 PM,51.1,34.0,52,30.06,10.0,NW,6.9,-,N/A,,Clear,310,2013-02-28 02:53:00
9:53 PM,48.9,33.1,54,30.08,10.0,NW,5.8,-,N/A,,Clear,310,2013-02-28 03:53:00
10:53 PM,48.0,33.1,56,30.09,10.0,NW,9.2,-,N/A,,Clear,320,2013-02-28 04:53:00